Time,TemperatureF,DewpointF,PressureIn,WindDirection,WindDirectionDegrees,WindSpeedMPH,WindSpeedGustMPH,Humidity,HourlyPrecipIn,Conditions,Clouds,dailyrainin,SoftwareType,DateUTC
2013-09-01 00:00:00,75.2,67.1,30.06,NE,45,4.0,-999.0,76,0.00,,,0.00,Wunderground v.1.15,2013-09-01 10:00:00,
2013-09-01 00:05:00,75.2,67.1,30.06,NE,45,4.0,-999.0,76,0.00,,,0.00,Wunderground v.1.15,2013-09-01 10:05:00,
2013-09-01 00:10:00,75.2,67.1,30.06,NE,45,4.0,-999.0,76,0.00,,,0.00,Wunderground v.1.15,2013-09-01 10:10:00,
2013-09-01 00:15:00,75.2,67.1,30.06,NE,45,4.0,-999.0,76,0.00,,,0.00,Wunderground v.1.15,2013-09-01 10:15:00,
2013-09-01 00:20:00,75.2,67.1,30.06,NE,45,4.0,-999.0,76,0.00,,,0.00,Wunderground v.1.15,2013-09-01 10:20:00,
2013-09-01 00:25:00,75.2,67.1,30.06,NE,45,4.0,-999.0,76,0.00,,,0.00,Wunderground v.1.15,2013-09-01 10:25:00,
2013-09-01 00:30:00,75.2,67.1,30.06,NE,45,4.0,-999.0,76,0.00,,,0.00,Wunderground v.1.15,2013-09-01 10:30:00,
2013-09-01 00:35:00,75.2,67.1,30.06,NE,45,4.0,-999.0,76,0.00,,,0.00,Wunderground v.1.15,2013-09-01 10:35:00,
2013-09-01 00:40:00,75.2,67.1,30.06,NE,45,4.0,-999.0,76,0.00,,,0.00,Wunderground v.1.15,2013-09-01 10:40:00,
2013-09-01 00:45:00,74.7,67.4,30.05,NE,45,3.0,-999.0,78,0.00,,,0.00,Wunderground v.1.15,2013-09-01 10:45:00,
2013-09-01 00:50:00,74.7,67.4,30.05,NE,45,3.0,-999.0,78,0.00,,,0.00,Wunderground v.1.15,2013-09-01 10:50:00,
2013-09-01 00:55:00,74.7,67.4,30.05,NE,45,3.0,-999.0,78,0.00,,,0.00,Wunderground v.1.15,2013-09-01 10:55:00,
2013-09-01 01:00:00,74.7,67.4,30.05,NE,45,3.0,-999.0,78,0.00,,,0.00,Wunderground v.1.15,2013-09-01 11:00:00,
2013-09-01 01:05:00,74.7,67.4,30.05,NE,45,3.0,-999.0,78,0.00,,,0.00,Wunderground v.1.15,2013-09-01 11:05:00,
2013-09-01 01:10:00,74.7,67.4,30.05,NE,45,3.0,-999.0,78,0.00,,,0.00,Wunderground v.1.15,2013-09-01 11:10:00,
2013-09-01 01:15:00,74.8,66.7,30.05,East,90,4.0,-999.0,76,0.00,,,0.00,Wunderground v.1.15,2013-09-01 11:15:00,
2013-09-01 01:20:00,74.8,66.7,30.05,East,90,4.0,-999.0,76,0.00,,,0.00,Wunderground v.1.15,2013-09-01 11:20:00,
2013-09-01 01:25:00,74.8,66.7,30.05,East,90,4.0,-999.0,76,0.00,,,0.00,Wunderground v.1.15,2013-09-01 11:25:00,
2013-09-01 01:30:00,74.8,66.7,30.05,East,90,4.0,-999.0,76,0.00,,,0.00,Wunderground v.1.15,2013-09-01 11:30:00,
2013-09-01 01:35:00,74.8,66.7,30.05,East,90,4.0,-999.0,76,0.00,,,0.00,Wunderground v.1.15,2013-09-01 11:35:00,
2013-09-01 01:40:00,74.8,66.7,30.05,East,90,4.0,-999.0,76,0.00,,,0.00,Wunderground v.1.15,2013-09-01 11:40:00,
2013-09-01 01:45:00,75.0,66.9,30.05,NE,45,4.0,-999.0,76,0.00,,,0.00,Wunderground v.1.15,2013-09-01 11:45:00,
2013-09-01 01:50:00,75.0,66.9,30.05,NE,45,4.0,-999.0,76,0.00,,,0.00,Wunderground v.1.15,2013-09-01 11:50:00,
2013-09-01 01:55:00,75.0,66.9,30.05,NE,45,4.0,-999.0,76,0.00,,,0.00,Wunderground v.1.15,2013-09-01 11:55:00,
2013-09-01 02:00:00,75.0,66.9,30.05,NE,45,4.0,-999.0,76,0.00,,,0.00,Wunderground v.1.15,2013-09-01 12:00:00,
2013-09-01 02:05:00,75.0,66.9,30.05,NE,45,4.0,-999.0,76,0.00,,,0.00,Wunderground v.1.15,2013-09-01 12:05:00,
2013-09-01 02:10:00,75.0,66.9,30.05,NE,45,4.0,-999.0,76,0.00,,,0.00,Wunderground v.1.15,2013-09-01 12:10:00,
2013-09-01 02:15:00,74.4,66.0,30.04,NE,45,2.0,-999.0,75,0.00,,,0.00,Wunderground v.1.15,2013-09-01 12:15:00,
2013-09-01 02:20:00,74.4,66.0,30.04,NE,45,2.0,-999.0,75,0.00,,,0.00,Wunderground v.1.15,2013-09-01 12:20:00,
2013-09-01 02:25:00,74.4,66.0,30.04,NE,45,2.0,-999.0,75,0.00,,,0.00,Wunderground v.1.15,2013-09-01 12:25:00,
2013-09-01 02:30:00,74.4,66.0,30.04,NE,45,2.0,-999.0,75,0.00,,,0.00,Wunderground v.1.15,2013-09-01 12:30:00,
2013-09-01 02:35:00,74.4,66.0,30.04,NE,45,2.0,-999.0,75,0.00,,,0.00,Wunderground v.1.15,2013-09-01 12:35:00,
2013-09-01 02:40:00,74.4,66.0,30.04,NE,45,2.0,-999.0,75,0.00,,,0.00,Wunderground v.1.15,2013-09-01 12:40:00,
2013-09-01 02:45:00,74.4,66.7,30.03,ENE,68,3.0,-999.0,77,0.00,,,0.00,Wunderground v.1.15,2013-09-01 12:45:00,
2013-09-01 02:50:00,74.4,66.7,30.03,ENE,68,3.0,-999.0,77,0.00,,,0.00,Wunderground v.1.15,2013-09-01 12:50:00,
2013-09-01 02:55:00,74.4,66.7,30.03,ENE,68,3.0,-999.0,77,0.00,,,0.00,Wunderground v.1.15,2013-09-01 12:55:00,
2013-09-01 03:00:00,74.4,66.7,30.03,ENE,68,3.0,-999.0,77,0.00,,,0.00,Wunderground v.1.15,2013-09-01 13:00:00,
2013-09-01 03:05:00,74.4,66.7,30.03,ENE,68,3.0,-999.0,77,0.00,,,0.00,Wunderground v.1.15,2013-09-01 13:05:00,
2013-09-01 03:10:00,74.4,66.7,30.03,ENE,68,3.0,-999.0,77,0.00,,,0.00,Wunderground v.1.15,2013-09-01 13:10:00,
2013-09-01 03:15:00,74.4,67.1,30.03,NE,45,4.0,-999.0,78,0.00,,,0.00,Wunderground v.1.15,2013-09-01 13:15:00,
2013-09-01 03:20:00,74.4,67.1,30.03,NE,45,4.0,-999.0,78,0.00,,,0.00,Wunderground v.1.15,2013-09-01 13:20:00,
2013-09-01 03:25:00,74.4,67.1,30.03,NE,45,4.0,-999.0,78,0.00,,,0.00,Wunderground v.1.15,2013-09-01 13:25:00,
2013-09-01 03:30:00,74.4,67.1,30.03,NE,45,4.0,-999.0,78,0.00,,,0.00,Wunderground v.1.15,2013-09-01 13:30:00,
2013-09-01 03:35:00,74.4,67.1,30.03,NE,45,4.0,-999.0,78,0.00,,,0.00,Wunderground v.1.15,2013-09-01 13:35:00,
2013-09-01 03:40:00,74.4,67.1,30.03,NE,45,4.0,-999.0,78,0.00,,,0.00,Wunderground v.1.15,2013-09-01 13:40:00,
2013-09-01 03:45:00,73.9,64.7,30.04,NE,45,4.0,-999.0,73,0.00,,,0.00,Wunderground v.1.15,2013-09-01 13:45:00,
2013-09-01 03:50:00,73.9,64.7,30.04,NE,45,4.0,-999.0,73,0.00,,,0.00,Wunderground v.1.15,2013-09-01 13:50:00,
2013-09-01 03:55:00,73.9,64.7,30.04,NE,45,4.0,-999.0,73,0.00,,,0.00,Wunderground v.1.15,2013-09-01 13:55:00,
2013-09-01 04:00:00,73.9,64.7,30.04,NE,45,4.0,-999.0,73,0.00,,,0.00,Wunderground v.1.15,2013-09-01 14:00:00,
2013-09-01 04:05:00,73.9,64.7,30.04,NE,45,4.0,-999.0,73,0.00,,,0.00,Wunderground v.1.15,2013-09-01 14:05:00,
2013-09-01 04:10:00,73.9,64.7,30.04,NE,45,4.0,-999.0,73,0.00,,,0.00,Wunderground v.1.15,2013-09-01 14:10:00,
2013-09-01 04:15:00,73.7,65.3,30.04,NE,45,2.0,-999.0,75,0.00,,,0.00,Wunderground v.1.15,2013-09-01 14:15:00,
2013-09-01 04:20:00,73.7,65.3,30.04,NE,45,2.0,-999.0,75,0.00,,,0.00,Wunderground v.1.15,2013-09-01 14:20:00,
2013-09-01 04:25:00,73.7,65.3,30.04,NE,45,2.0,-999.0,75,0.00,,,0.00,Wunderground v.1.15,2013-09-01 14:25:00,
2013-09-01 04:30:00,73.7,65.3,30.04,NE,45,2.0,-999.0,75,0.00,,,0.00,Wunderground v.1.15,2013-09-01 14:30:00,
2013-09-01 04:35:00,73.7,65.3,30.04,NE,45,2.0,-999.0,75,0.00,,,0.00,Wunderground v.1.15,2013-09-01 14:35:00,
2013-09-01 04:40:00,73.7,65.3,30.04,NE,45,2.0,-999.0,75,0.00,,,0.00,Wunderground v.1.15,2013-09-01 14:40:00,
2013-09-01 04:45:00,73.3,64.9,30.04,NE,45,1.0,-999.0,75,0.00,,,0.00,Wunderground v.1.15,2013-09-01 14:45:00,
2013-09-01 04:50:00,73.3,64.9,30.04,NE,45,1.0,-999.0,75,0.00,,,0.00,Wunderground v.1.15,2013-09-01 14:50:00,
2013-09-01 04:55:00,73.3,64.9,30.04,NE,45,1.0,-999.0,75,0.00,,,0.00,Wunderground v.1.15,2013-09-01 14:55:00,
2013-09-01 05:00:00,73.3,64.9,30.04,NE,45,1.0,-999.0,75,0.00,,,0.00,Wunderground v.1.15,2013-09-01 15:00:00,
2013-09-01 05:05:00,73.3,64.9,30.04,NE,45,1.0,-999.0,75,0.00,,,0.00,Wunderground v.1.15,2013-09-01 15:05:00,
2013-09-01 05:10:00,73.3,64.9,30.04,NE,45,1.0,-999.0,75,0.00,,,0.00,Wunderground v.1.15,2013-09-01 15:10:00,
2013-09-01 05:15:00,73.2,64.4,30.05,NE,45,2.0,-999.0,74,0.00,,,0.00,Wunderground v.1.15,2013-09-01 15:15:00,
2013-09-01 05:20:00,73.2,64.4,30.05,NE,45,2.0,-999.0,74,0.00,,,0.00,Wunderground v.1.15,2013-09-01 15:20:00,
2013-09-01 05:25:00,73.2,64.4,30.05,NE,45,2.0,-999.0,74,0.00,,,0.00,Wunderground v.1.15,2013-09-01 15:25:00,
2013-09-01 05:30:00,73.2,64.4,30.05,NE,45,2.0,-999.0,74,0.00,,,0.00,Wunderground v.1.15,2013-09-01 15:30:00,
2013-09-01 05:35:00,73.2,64.4,30.05,NE,45,2.0,-999.0,74,0.00,,,0.00,Wunderground v.1.15,2013-09-01 15:35:00,
2013-09-01 05:40:00,73.2,64.4,30.05,NE,45,2.0,-999.0,74,0.00,,,0.00,Wunderground v.1.15,2013-09-01 15:40:00,
2013-09-01 05:45:00,72.9,64.5,30.05,NE,45,1.0,-999.0,75,0.00,,,0.00,Wunderground v.1.15,2013-09-01 15:45:00,
2013-09-01 05:50:00,72.9,64.5,30.05,NE,45,1.0,-999.0,75,0.00,,,0.00,Wunderground v.1.15,2013-09-01 15:50:00,
2013-09-01 05:55:00,72.9,64.5,30.05,NE,45,1.0,-999.0,75,0.00,,,0.00,Wunderground v.1.15,2013-09-01 15:55:00,
2013-09-01 06:00:00,72.9,64.5,30.05,NE,45,1.0,-999.0,75,0.00,,,0.00,Wunderground v.1.15,2013-09-01 16:00:00,
2013-09-01 06:05:00,72.9,64.5,30.05,NE,45,1.0,-999.0,75,0.00,,,0.00,Wunderground v.1.15,2013-09-01 16:05:00,
2013-09-01 06:10:00,72.9,64.5,30.05,NE,45,1.0,-999.0,75,0.00,,,0.00,Wunderground v.1.15,2013-09-01 16:10:00,
2013-09-01 06:15:00,72.0,64.8,30.06,NE,45,0.0,-999.0,78,0.00,,,0.00,Wunderground v.1.15,2013-09-01 16:15:00,
2013-09-01 06:20:00,72.0,64.8,30.06,NE,45,0.0,-999.0,78,0.00,,,0.00,Wunderground v.1.15,2013-09-01 16:20:00,
2013-09-01 06:25:00,72.0,64.8,30.06,NE,45,0.0,-999.0,78,0.00,,,0.00,Wunderground v.1.15,2013-09-01 16:25:00,
2013-09-01 06:30:00,72.0,64.8,30.06,NE,45,0.0,-999.0,78,0.00,,,0.00,Wunderground v.1.15,2013-09-01 16:30:00,
2013-09-01 06:35:00,72.0,64.8,30.06,NE,45,0.0,-999.0,78,0.00,,,0.00,Wunderground v.1.15,2013-09-01 16:35:00,
2013-09-01 06:40:00,72.0,64.8,30.06,NE,45,0.0,-999.0,78,0.00,,,0.00,Wunderground v.1.15,2013-09-01 16:40:00,
2013-09-01 06:45:00,71.9,65.0,30.06,NE,45,1.0,-999.0,79,0.00,,,0.00,Wunderground v.1.15,2013-09-01 16:45:00,
2013-09-01 06:50:00,71.9,65.0,30.06,NE,45,1.0,-999.0,79,0.00,,,0.00,Wunderground v.1.15,2013-09-01 16:50:00,
2013-09-01 06:55:00,71.9,65.0,30.06,NE,45,1.0,-999.0,79,0.00,,,0.00,Wunderground v.1.15,2013-09-01 16:55:00,
2013-09-01 07:00:00,71.9,65.0,30.06,NE,45,1.0,-999.0,79,0.00,,,0.00,Wunderground v.1.15,2013-09-01 17:00:00,
2013-09-01 07:05:00,71.9,65.0,30.06,NE,45,1.0,-999.0,79,0.00,,,0.00,Wunderground v.1.15,2013-09-01 17:05:00,
2013-09-01 07:10:00,71.9,65.0,30.06,NE,45,1.0,-999.0,79,0.00,,,0.00,Wunderground v.1.15,2013-09-01 17:10:00,
2013-09-01 07:15:00,73.9,67.7,30.07,NE,45,3.0,-999.0,81,0.00,,,0.00,Wunderground v.1.15,2013-09-01 17:15:00,
2013-09-01 07:20:00,73.9,67.7,30.07,NE,45,3.0,-999.0,81,0.00,,,0.00,Wunderground v.1.15,2013-09-01 17:20:00,
2013-09-01 07:25:00,73.9,67.7,30.07,NE,45,3.0,-999.0,81,0.00,,,0.00,Wunderground v.1.15,2013-09-01 17:25:00,
2013-09-01 07:30:00,73.9,67.7,30.07,NE,45,3.0,-999.0,81,0.00,,,0.00,Wunderground v.1.15,2013-09-01 17:30:00,
2013-09-01 07:35:00,73.9,67.7,30.07,NE,45,3.0,-999.0,81,0.00,,,0.00,Wunderground v.1.15,2013-09-01 17:35:00,
2013-09-01 07:40:00,73.9,67.7,30.07,NE,45,3.0,-999.0,81,0.00,,,0.00,Wunderground v.1.15,2013-09-01 17:40:00,
2013-09-01 07:45:00,75.9,67.0,30.08,ENE,68,4.0,-999.0,74,0.00,,,0.00,Wunderground v.1.15,2013-09-01 17:45:00,
2013-09-01 07:50:00,75.9,67.0,30.08,ENE,68,4.0,-999.0,74,0.00,,,0.00,Wunderground v.1.15,2013-09-01 17:50:00,
2013-09-01 07:55:00,75.9,67.0,30.08,ENE,68,4.0,-999.0,74,0.00,,,0.00,Wunderground v.1.15,2013-09-01 17:55:00,
2013-09-01 08:00:00,75.9,67.0,30.08,ENE,68,4.0,-999.0,74,0.00,,,0.00,Wunderground v.1.15,2013-09-01 18:00:00,
2013-09-01 08:05:00,75.9,67.0,30.08,ENE,68,4.0,-999.0,74,0.00,,,0.00,Wunderground v.1.15,2013-09-01 18:05:00,
2013-09-01 08:10:00,75.9,67.0,30.08,ENE,68,4.0,-999.0,74,0.00,,,0.00,Wunderground v.1.15,2013-09-01 18:10:00,
2013-09-01 08:15:00,79.3,67.4,30.08,NE,45,3.0,-999.0,67,0.00,,,0.00,Wunderground v.1.15,2013-09-01 18:15:00,
2013-09-01 08:20:00,79.3,67.4,30.08,NE,45,3.0,-999.0,67,0.00,,,0.00,Wunderground v.1.15,2013-09-01 18:20:00,
2013-09-01 08:25:00,79.3,67.4,30.08,NE,45,3.0,-999.0,67,0.00,,,0.00,Wunderground v.1.15,2013-09-01 18:25:00,
2013-09-01 08:30:00,79.3,67.4,30.08,NE,45,3.0,-999.0,67,0.00,,,0.00,Wunderground v.1.15,2013-09-01 18:30:00,
2013-09-01 08:35:00,79.3,67.4,30.08,NE,45,3.0,-999.0,67,0.00,,,0.00,Wunderground v.1.15,2013-09-01 18:35:00,
2013-09-01 08:40:00,79.3,67.4,30.08,NE,45,3.0,-999.0,67,0.00,,,0.00,Wunderground v.1.15,2013-09-01 18:40:00,
2013-09-01 08:45:00,81.9,68.1,30.08,ENE,68,4.0,-999.0,63,0.00,,,0.00,Wunderground v.1.15,2013-09-01 18:45:00,
2013-09-01 08:50:00,81.9,68.1,30.08,ENE,68,4.0,-999.0,63,0.00,,,0.00,Wunderground v.1.15,2013-09-01 18:50:00,
2013-09-01 08:55:00,81.9,68.1,30.08,ENE,68,4.0,-999.0,63,0.00,,,0.00,Wunderground v.1.15,2013-09-01 18:55:00,
2013-09-01 09:00:00,81.9,68.1,30.08,ENE,68,4.0,-999.0,63,0.00,,,0.00,Wunderground v.1.15,2013-09-01 19:00:00,
2013-09-01 09:05:00,81.9,68.1,30.08,ENE,68,4.0,-999.0,63,0.00,,,0.00,Wunderground v.1.15,2013-09-01 19:05:00,
2013-09-01 09:10:00,81.9,68.1,30.08,ENE,68,4.0,-999.0,63,0.00,,,0.00,Wunderground v.1.15,2013-09-01 19:10:00,
2013-09-01 09:15:00,80.6,69.5,30.08,NE,45,6.0,-999.0,69,0.00,,,0.00,Wunderground v.1.15,2013-09-01 19:15:00,
2013-09-01 09:20:00,80.6,69.5,30.08,NE,45,6.0,-999.0,69,0.00,,,0.00,Wunderground v.1.15,2013-09-01 19:20:00,
2013-09-01 09:25:00,80.6,69.5,30.08,NE,45,6.0,-999.0,69,0.00,,,0.00,Wunderground v.1.15,2013-09-01 19:25:00,
2013-09-01 09:30:00,80.6,69.5,30.08,NE,45,6.0,-999.0,69,0.00,,,0.00,Wunderground v.1.15,2013-09-01 19:30:00,
2013-09-01 09:35:00,80.6,69.5,30.08,NE,45,6.0,-999.0,69,0.00,,,0.00,Wunderground v.1.15,2013-09-01 19:35:00,
2013-09-01 09:40:00,80.6,69.5,30.08,NE,45,6.0,-999.0,69,0.00,,,0.00,Wunderground v.1.15,2013-09-01 19:40:00,
2013-09-01 09:45:00,81.7,70.5,30.08,NE,45,7.0,-999.0,69,0.00,,,0.00,Wunderground v.1.15,2013-09-01 19:45:00,
2013-09-01 09:50:00,81.7,70.5,30.08,NE,45,7.0,-999.0,69,0.00,,,0.00,Wunderground v.1.15,2013-09-01 19:50:00,
2013-09-01 09:55:00,81.7,70.5,30.08,NE,45,7.0,-999.0,69,0.00,,,0.00,Wunderground v.1.15,2013-09-01 19:55:00,
2013-09-01 10:00:00,81.7,70.5,30.08,NE,45,7.0,-999.0,69,0.00,,,0.00,Wunderground v.1.15,2013-09-01 20:00:00,
2013-09-01 10:05:00,81.7,70.5,30.08,NE,45,7.0,-999.0,69,0.00,,,0.00,Wunderground v.1.15,2013-09-01 20:05:00,
2013-09-01 10:10:00,81.7,70.5,30.08,NE,45,7.0,-999.0,69,0.00,,,0.00,Wunderground v.1.15,2013-09-01 20:10:00,
2013-09-01 10:15:00,80.0,73.6,30.08,NE,45,4.0,-999.0,81,0.00,,,0.00,Wunderground v.1.15,2013-09-01 20:15:00,
2013-09-01 10:20:00,80.0,73.6,30.08,NE,45,4.0,-999.0,81,0.00,,,0.00,Wunderground v.1.15,2013-09-01 20:20:00,
2013-09-01 10:25:00,80.0,73.6,30.08,NE,45,4.0,-999.0,81,0.00,,,0.00,Wunderground v.1.15,2013-09-01 20:25:00,
2013-09-01 10:30:00,80.0,73.6,30.08,NE,45,4.0,-999.0,81,0.00,,,0.00,Wunderground v.1.15,2013-09-01 20:30:00,
2013-09-01 10:35:00,80.0,73.6,30.08,NE,45,4.0,-999.0,81,0.00,,,0.00,Wunderground v.1.15,2013-09-01 20:35:00,
2013-09-01 10:40:00,80.0,73.6,30.08,NE,45,4.0,-999.0,81,0.00,,,0.00,Wunderground v.1.15,2013-09-01 20:40:00,
2013-09-01 10:45:00,81.1,68.7,30.07,NE,45,6.0,-999.0,66,0.00,,,0.00,Wunderground v.1.15,2013-09-01 20:45:00,
2013-09-01 10:50:00,81.1,68.7,30.07,NE,45,6.0,-999.0,66,0.00,,,0.00,Wunderground v.1.15,2013-09-01 20:50:00,
2013-09-01 10:55:00,81.1,68.7,30.07,NE,45,6.0,-999.0,66,0.00,,,0.00,Wunderground v.1.15,2013-09-01 20:55:00,
2013-09-01 11:00:00,81.1,68.7,30.07,NE,45,6.0,-999.0,66,0.00,,,0.00,Wunderground v.1.15,2013-09-01 21:00:00,
2013-09-01 11:05:00,81.1,68.7,30.07,NE,45,6.0,-999.0,66,0.00,,,0.00,Wunderground v.1.15,2013-09-01 21:05:00,
2013-09-01 11:10:00,81.1,68.7,30.07,NE,45,6.0,-999.0,66,0.00,,,0.00,Wunderground v.1.15,2013-09-01 21:10:00,
2013-09-01 11:15:00,84.8,68.9,30.07,NE,45,7.0,-999.0,59,0.00,,,0.00,Wunderground v.1.15,2013-09-01 21:15:00,
2013-09-01 11:20:00,84.8,68.9,30.07,NE,45,7.0,-999.0,59,0.00,,,0.00,Wunderground v.1.15,2013-09-01 21:20:00,
2013-09-01 11:25:00,84.8,68.9,30.07,NE,45,7.0,-999.0,59,0.00,,,0.00,Wunderground v.1.15,2013-09-01 21:25:00,
2013-09-01 11:30:00,84.8,68.9,30.07,NE,45,7.0,-999.0,59,0.00,,,0.00,Wunderground v.1.15,2013-09-01 21:30:00,
2013-09-01 11:35:00,84.8,68.9,30.07,NE,45,7.0,-999.0,59,0.00,,,0.00,Wunderground v.1.15,2013-09-01 21:35:00,
2013-09-01 11:40:00,84.8,68.9,30.07,NE,45,7.0,-999.0,59,0.00,,,0.00,Wunderground v.1.15,2013-09-01 21:40:00,
2013-09-01 11:45:00,86.0,68.5,30.06,NE,45,8.0,-999.0,56,0.00,,,0.00,Wunderground v.1.15,2013-09-01 21:45:00,
2013-09-01 11:50:00,86.0,68.5,30.06,NE,45,8.0,-999.0,56,0.00,,,0.00,Wunderground v.1.15,2013-09-01 21:50:00,
2013-09-01 11:55:00,86.0,68.5,30.06,NE,45,8.0,-999.0,56,0.00,,,0.00,Wunderground v.1.15,2013-09-01 21:55:00,
2013-09-01 12:00:00,86.0,68.5,30.06,NE,45,8.0,-999.0,56,0.00,,,0.00,Wunderground v.1.15,2013-09-01 22:00:00,
2013-09-01 12:05:00,86.0,68.5,30.06,NE,45,8.0,-999.0,56,0.00,,,0.00,Wunderground v.1.15,2013-09-01 22:05:00,
2013-09-01 12:10:00,86.0,68.5,30.06,NE,45,8.0,-999.0,56,0.00,,,0.00,Wunderground v.1.15,2013-09-01 22:10:00,
2013-09-01 12:15:00,87.6,70.0,30.05,NE,45,7.0,-999.0,56,0.00,,,0.00,Wunderground v.1.15,2013-09-01 22:15:00,
2013-09-01 12:20:00,87.6,70.0,30.05,NE,45,7.0,-999.0,56,0.00,,,0.00,Wunderground v.1.15,2013-09-01 22:20:00,
2013-09-01 12:25:00,87.6,70.0,30.05,NE,45,7.0,-999.0,56,0.00,,,0.00,Wunderground v.1.15,2013-09-01 22:25:00,
2013-09-01 12:30:00,87.6,70.0,30.05,NE,45,7.0,-999.0,56,0.00,,,0.00,Wunderground v.1.15,2013-09-01 22:30:00,
2013-09-01 12:35:00,87.6,70.0,30.05,NE,45,7.0,-999.0,56,0.00,,,0.00,Wunderground v.1.15,2013-09-01 22:35:00,
2013-09-01 12:40:00,87.6,70.0,30.05,NE,45,7.0,-999.0,56,0.00,,,0.00,Wunderground v.1.15,2013-09-01 22:40:00,
2013-09-01 12:45:00,87.1,71.5,30.04,NE,45,7.0,-999.0,60,0.00,,,0.00,Wunderground v.1.15,2013-09-01 22:45:00,
2013-09-01 12:50:00,87.1,71.5,30.04,NE,45,7.0,-999.0,60,0.00,,,0.00,Wunderground v.1.15,2013-09-01 22:50:00,
2013-09-01 12:55:00,87.1,71.5,30.04,NE,45,7.0,-999.0,60,0.00,,,0.00,Wunderground v.1.15,2013-09-01 22:55:00,
2013-09-01 13:00:00,87.1,71.5,30.04,NE,45,7.0,-999.0,60,0.00,,,0.00,Wunderground v.1.15,2013-09-01 23:00:00,
2013-09-01 13:05:00,87.1,71.5,30.04,NE,45,7.0,-999.0,60,0.00,,,0.00,Wunderground v.1.15,2013-09-01 23:05:00,
2013-09-01 13:10:00,87.1,71.5,30.04,NE,45,7.0,-999.0,60,0.00,,,0.00,Wunderground v.1.15,2013-09-01 23:10:00,
2013-09-01 13:15:00,84.4,70.4,30.02,NE,45,8.0,-999.0,63,0.00,,,0.00,Wunderground v.1.15,2013-09-01 23:15:00,
2013-09-01 13:20:00,84.4,70.4,30.02,NE,45,8.0,-999.0,63,0.00,,,0.00,Wunderground v.1.15,2013-09-01 23:20:00,
2013-09-01 13:25:00,84.4,70.4,30.02,NE,45,8.0,-999.0,63,0.00,,,0.00,Wunderground v.1.15,2013-09-01 23:25:00,
2013-09-01 13:30:00,84.4,70.4,30.02,NE,45,8.0,-999.0,63,0.00,,,0.00,Wunderground v.1.15,2013-09-01 23:30:00,
2013-09-01 13:35:00,84.4,70.4,30.02,NE,45,8.0,-999.0,63,0.00,,,0.00,Wunderground v.1.15,2013-09-01 23:35:00,
2013-09-01 13:40:00,84.4,70.4,30.02,NE,45,8.0,-999.0,63,0.00,,,0.00,Wunderground v.1.15,2013-09-01 23:40:00,
2013-09-01 13:45:00,83.5,69.1,30.02,NE,45,6.0,-999.0,62,0.00,,,0.00,Wunderground v.1.15,2013-09-01 23:45:00,
2013-09-01 13:50:00,83.5,69.1,30.02,NE,45,6.0,-999.0,62,0.00,,,0.00,Wunderground v.1.15,2013-09-01 23:50:00,
2013-09-01 13:55:00,83.5,69.1,30.02,NE,45,6.0,-999.0,62,0.00,,,0.00,Wunderground v.1.15,2013-09-01 23:55:00,
2013-09-01 14:00:00,83.5,69.1,30.02,NE,45,6.0,-999.0,62,0.00,,,0.00,Wunderground v.1.15,2013-09-02 00:00:00,
2013-09-01 14:05:00,83.5,69.1,30.02,NE,45,6.0,-999.0,62,0.00,,,0.00,Wunderground v.1.15,2013-09-02 00:05:00,
2013-09-01 14:10:00,83.5,69.1,30.02,NE,45,6.0,-999.0,62,0.00,,,0.00,Wunderground v.1.15,2013-09-02 00:10:00,
2013-09-01 14:15:00,84.8,69.9,30.02,NE,45,8.0,-999.0,61,0.00,,,0.00,Wunderground v.1.15,2013-09-02 00:15:00,
2013-09-01 14:20:00,84.8,69.9,30.02,NE,45,8.0,-999.0,61,0.00,,,0.00,Wunderground v.1.15,2013-09-02 00:20:00,
2013-09-01 14:25:00,84.8,69.9,30.02,NE,45,8.0,-999.0,61,0.00,,,0.00,Wunderground v.1.15,2013-09-02 00:25:00,
2013-09-01 14:30:00,84.8,69.9,30.02,NE,45,8.0,-999.0,61,0.00,,,0.00,Wunderground v.1.15,2013-09-02 00:30:00,
2013-09-01 14:35:00,84.8,69.9,30.02,NE,45,8.0,-999.0,61,0.00,,,0.00,Wunderground v.1.15,2013-09-02 00:35:00,
2013-09-01 14:40:00,84.8,69.9,30.02,NE,45,8.0,-999.0,61,0.00,,,0.00,Wunderground v.1.15,2013-09-02 00:40:00,
2013-09-01 14:45:00,82.9,68.5,30.01,NE,45,6.0,-999.0,62,0.00,,,0.00,Wunderground v.1.15,2013-09-02 00:45:00,
2013-09-01 14:50:00,82.9,68.5,30.01,NE,45,6.0,-999.0,62,0.00,,,0.00,Wunderground v.1.15,2013-09-02 00:50:00,
2013-09-01 14:55:00,82.9,68.5,30.01,NE,45,6.0,-999.0,62,0.00,,,0.00,Wunderground v.1.15,2013-09-02 00:55:00,
2013-09-01 15:00:00,82.9,68.5,30.01,NE,45,6.0,-999.0,62,0.00,,,0.00,Wunderground v.1.15,2013-09-02 01:00:00,
2013-09-01 15:05:00,82.9,68.5,30.01,NE,45,6.0,-999.0,62,0.00,,,0.00,Wunderground v.1.15,2013-09-02 01:05:00,
2013-09-01 15:10:00,82.9,68.5,30.01,NE,45,6.0,-999.0,62,0.00,,,0.00,Wunderground v.1.15,2013-09-02 01:10:00,
2013-09-01 15:15:00,83.2,66.9,30.01,NE,45,6.0,-999.0,58,0.00,,,0.00,Wunderground v.1.15,2013-09-02 01:15:00,
2013-09-01 15:20:00,83.2,66.9,30.01,NE,45,6.0,-999.0,58,0.00,,,0.00,Wunderground v.1.15,2013-09-02 01:20:00,
2013-09-01 15:25:00,83.2,66.9,30.01,NE,45,6.0,-999.0,58,0.00,,,0.00,Wunderground v.1.15,2013-09-02 01:25:00,
2013-09-01 15:30:00,83.2,66.9,30.01,NE,45,6.0,-999.0,58,0.00,,,0.00,Wunderground v.1.15,2013-09-02 01:30:00,
2013-09-01 15:35:00,83.2,66.9,30.01,NE,45,6.0,-999.0,58,0.00,,,0.00,Wunderground v.1.15,2013-09-02 01:35:00,
2013-09-01 15:40:00,83.2,66.9,30.01,NE,45,6.0,-999.0,58,0.00,,,0.00,Wunderground v.1.15,2013-09-02 01:40:00,
2013-09-01 15:45:00,84.1,68.2,30.00,East,90,7.0,-999.0,59,0.00,,,0.00,Wunderground v.1.15,2013-09-02 01:45:00,
2013-09-01 15:50:00,84.1,68.2,30.00,East,90,7.0,-999.0,59,0.00,,,0.00,Wunderground v.1.15,2013-09-02 01:50:00,
2013-09-01 15:55:00,84.1,68.2,30.00,East,90,7.0,-999.0,59,0.00,,,0.00,Wunderground v.1.15,2013-09-02 01:55:00,
2013-09-01 16:00:00,84.1,68.2,30.00,East,90,7.0,-999.0,59,0.00,,,0.00,Wunderground v.1.15,2013-09-02 02:00:00,
2013-09-01 16:05:00,84.1,68.2,30.00,East,90,7.0,-999.0,59,0.00,,,0.00,Wunderground v.1.15,2013-09-02 02:05:00,
2013-09-01 16:10:00,84.1,68.2,30.00,East,90,7.0,-999.0,59,0.00,,,0.00,Wunderground v.1.15,2013-09-02 02:10:00,
2013-09-01 16:15:00,85.1,68.2,30.00,East,90,6.0,-999.0,57,0.00,,,0.00,Wunderground v.1.15,2013-09-02 02:15:00,
2013-09-01 16:20:00,85.1,68.2,30.00,East,90,6.0,-999.0,57,0.00,,,0.00,Wunderground v.1.15,2013-09-02 02:20:00,
2013-09-01 16:25:00,85.1,68.2,30.00,East,90,6.0,-999.0,57,0.00,,,0.00,Wunderground v.1.15,2013-09-02 02:25:00,
2013-09-01 16:30:00,85.1,68.2,30.00,East,90,6.0,-999.0,57,0.00,,,0.00,Wunderground v.1.15,2013-09-02 02:30:00,
2013-09-01 16:35:00,85.1,68.2,30.00,East,90,6.0,-999.0,57,0.00,,,0.00,Wunderground v.1.15,2013-09-02 02:35:00,
2013-09-01 16:40:00,85.1,68.2,30.00,East,90,6.0,-999.0,57,0.00,,,0.00,Wunderground v.1.15,2013-09-02 02:40:00,
2013-09-01 16:45:00,84.9,69.0,30.01,ENE,68,7.0,-999.0,59,0.00,,,0.00,Wunderground v.1.15,2013-09-02 02:45:00,
2013-09-01 16:50:00,84.9,69.0,30.01,ENE,68,7.0,-999.0,59,0.00,,,0.00,Wunderground v.1.15,2013-09-02 02:50:00,
2013-09-01 16:55:00,84.9,69.0,30.01,ENE,68,7.0,-999.0,59,0.00,,,0.00,Wunderground v.1.15,2013-09-02 02:55:00,
2013-09-01 17:00:00,84.9,69.0,30.01,ENE,68,7.0,-999.0,59,0.00,,,0.00,Wunderground v.1.15,2013-09-02 03:00:00,
2013-09-01 17:05:00,84.9,69.0,30.01,ENE,68,7.0,-999.0,59,0.00,,,0.00,Wunderground v.1.15,2013-09-02 03:05:00,
2013-09-01 17:10:00,84.9,69.0,30.01,ENE,68,7.0,-999.0,59,0.00,,,0.00,Wunderground v.1.15,2013-09-02 03:10:00,
2013-09-01 17:15:00,84.0,68.6,30.01,ENE,68,6.0,-999.0,60,0.00,,,0.00,Wunderground v.1.15,2013-09-02 03:15:00,
2013-09-01 17:20:00,84.0,68.6,30.01,ENE,68,6.0,-999.0,60,0.00,,,0.00,Wunderground v.1.15,2013-09-02 03:20:00,
2013-09-01 17:25:00,84.0,68.6,30.01,ENE,68,6.0,-999.0,60,0.00,,,0.00,Wunderground v.1.15,2013-09-02 03:25:00,
2013-09-01 17:30:00,84.0,68.6,30.01,ENE,68,6.0,-999.0,60,0.00,,,0.00,Wunderground v.1.15,2013-09-02 03:30:00,
2013-09-01 17:35:00,84.0,68.6,30.01,ENE,68,6.0,-999.0,60,0.00,,,0.00,Wunderground v.1.15,2013-09-02 03:35:00,
2013-09-01 17:40:00,84.0,68.6,30.01,ENE,68,6.0,-999.0,60,0.00,,,0.00,Wunderground v.1.15,2013-09-02 03:40:00,
2013-09-01 17:45:00,82.5,68.6,30.02,East,90,5.0,-999.0,63,0.00,,,0.00,Wunderground v.1.15,2013-09-02 03:45:00,
2013-09-01 17:50:00,82.5,68.6,30.02,East,90,5.0,-999.0,63,0.00,,,0.00,Wunderground v.1.15,2013-09-02 03:50:00,
2013-09-01 17:55:00,82.5,68.6,30.02,East,90,5.0,-999.0,63,0.00,,,0.00,Wunderground v.1.15,2013-09-02 03:55:00,
2013-09-01 18:00:00,82.5,68.6,30.02,East,90,5.0,-999.0,63,0.00,,,0.00,Wunderground v.1.15,2013-09-02 04:00:00,
2013-09-01 18:05:00,82.5,68.6,30.02,East,90,5.0,-999.0,63,0.00,,,0.00,Wunderground v.1.15,2013-09-02 04:05:00,
2013-09-01 18:10:00,82.5,68.6,30.02,East,90,5.0,-999.0,63,0.00,,,0.00,Wunderground v.1.15,2013-09-02 04:10:00,
2013-09-01 18:15:00,80.8,68.8,30.02,ENE,68,5.0,-999.0,67,0.00,,,0.00,Wunderground v.1.15,2013-09-02 04:15:00,
2013-09-01 18:20:00,80.8,68.8,30.02,ENE,68,5.0,-999.0,67,0.00,,,0.00,Wunderground v.1.15,2013-09-02 04:20:00,
2013-09-01 18:25:00,80.8,68.8,30.02,ENE,68,5.0,-999.0,67,0.00,,,0.00,Wunderground v.1.15,2013-09-02 04:25:00,
2013-09-01 18:30:00,80.8,68.8,30.02,ENE,68,5.0,-999.0,67,0.00,,,0.00,Wunderground v.1.15,2013-09-02 04:30:00,
2013-09-01 18:35:00,80.8,68.8,30.02,ENE,68,5.0,-999.0,67,0.00,,,0.00,Wunderground v.1.15,2013-09-02 04:35:00,
2013-09-01 18:40:00,80.8,68.8,30.02,ENE,68,5.0,-999.0,67,0.00,,,0.00,Wunderground v.1.15,2013-09-02 04:40:00,
2013-09-01 18:45:00,78.9,68.3,30.03,NE,45,7.0,-999.0,70,0.00,,,0.00,Wunderground v.1.15,2013-09-02 04:45:00,
2013-09-01 18:50:00,78.9,68.3,30.03,NE,45,7.0,-999.0,70,0.00,,,0.00,Wunderground v.1.15,2013-09-02 04:50:00,
2013-09-01 18:55:00,78.9,68.3,30.03,NE,45,7.0,-999.0,70,0.00,,,0.00,Wunderground v.1.15,2013-09-02 04:55:00,
2013-09-01 19:00:00,78.9,68.3,30.03,NE,45,7.0,-999.0,70,0.00,,,0.00,Wunderground v.1.15,2013-09-02 05:00:00,
2013-09-01 19:05:00,78.9,68.3,30.03,NE,45,7.0,-999.0,70,0.00,,,0.00,Wunderground v.1.15,2013-09-02 05:05:00,
2013-09-01 19:10:00,78.9,68.3,30.03,NE,45,7.0,-999.0,70,0.00,,,0.00,Wunderground v.1.15,2013-09-02 05:10:00,
2013-09-01 19:15:00,77.8,67.6,30.04,NE,45,7.0,-999.0,71,0.00,,,0.00,Wunderground v.1.15,2013-09-02 05:15:00,
2013-09-01 19:20:00,77.8,67.6,30.04,NE,45,7.0,-999.0,71,0.00,,,0.00,Wunderground v.1.15,2013-09-02 05:20:00,
2013-09-01 19:25:00,77.8,67.6,30.04,NE,45,7.0,-999.0,71,0.00,,,0.00,Wunderground v.1.15,2013-09-02 05:25:00,
2013-09-01 19:30:00,77.8,67.6,30.04,NE,45,7.0,-999.0,71,0.00,,,0.00,Wunderground v.1.15,2013-09-02 05:30:00,
2013-09-01 19:35:00,77.8,67.6,30.04,NE,45,7.0,-999.0,71,0.00,,,0.00,Wunderground v.1.15,2013-09-02 05:35:00,
2013-09-01 19:40:00,77.8,67.6,30.04,NE,45,7.0,-999.0,71,0.00,,,0.00,Wunderground v.1.15,2013-09-02 05:40:00,
2013-09-01 19:45:00,77.4,67.7,30.05,NE,45,8.0,-999.0,72,0.00,,,0.00,Wunderground v.1.15,2013-09-02 05:45:00,
2013-09-01 19:50:00,77.4,67.7,30.05,NE,45,8.0,-999.0,72,0.00,,,0.00,Wunderground v.1.15,2013-09-02 05:50:00,
2013-09-01 19:55:00,77.4,67.7,30.05,NE,45,8.0,-999.0,72,0.00,,,0.00,Wunderground v.1.15,2013-09-02 05:55:00,
2013-09-01 20:00:00,77.4,67.7,30.05,NE,45,8.0,-999.0,72,0.00,,,0.00,Wunderground v.1.15,2013-09-02 06:00:00,
2013-09-01 20:05:00,77.4,67.7,30.05,NE,45,8.0,-999.0,72,0.00,,,0.00,Wunderground v.1.15,2013-09-02 06:05:00,
2013-09-01 20:10:00,77.4,67.7,30.05,NE,45,8.0,-999.0,72,0.00,,,0.00,Wunderground v.1.15,2013-09-02 06:10:00,
2013-09-01 20:15:00,77.2,67.5,30.06,NE,45,6.0,-999.0,72,0.00,,,0.00,Wunderground v.1.15,2013-09-02 06:15:00,
2013-09-01 20:20:00,77.2,67.5,30.06,NE,45,6.0,-999.0,72,0.00,,,0.00,Wunderground v.1.15,2013-09-02 06:20:00,
2013-09-01 20:25:00,77.2,67.5,30.06,NE,45,6.0,-999.0,72,0.00,,,0.00,Wunderground v.1.15,2013-09-02 06:25:00,
2013-09-01 20:30:00,77.2,67.5,30.06,NE,45,6.0,-999.0,72,0.00,,,0.00,Wunderground v.1.15,2013-09-02 06:30:00,
2013-09-01 20:35:00,77.2,67.5,30.06,NE,45,6.0,-999.0,72,0.00,,,0.00,Wunderground v.1.15,2013-09-02 06:35:00,
2013-09-01 20:40:00,77.2,67.5,30.06,NE,45,6.0,-999.0,72,0.00,,,0.00,Wunderground v.1.15,2013-09-02 06:40:00,
2013-09-01 20:45:00,76.9,67.6,30.07,NE,45,5.0,-999.0,73,0.00,,,0.00,Wunderground v.1.15,2013-09-02 06:45:00,
2013-09-01 20:50:00,76.9,67.6,30.07,NE,45,5.0,-999.0,73,0.00,,,0.00,Wunderground v.1.15,2013-09-02 06:50:00,
2013-09-01 20:55:00,76.9,67.6,30.07,NE,45,5.0,-999.0,73,0.00,,,0.00,Wunderground v.1.15,2013-09-02 06:55:00,
2013-09-01 21:00:00,76.9,67.6,30.07,NE,45,5.0,-999.0,73,0.00,,,0.00,Wunderground v.1.15,2013-09-02 07:00:00,
2013-09-01 21:05:00,76.9,67.6,30.07,NE,45,5.0,-999.0,73,0.00,,,0.00,Wunderground v.1.15,2013-09-02 07:05:00,
2013-09-01 21:10:00,76.9,67.6,30.07,NE,45,5.0,-999.0,73,0.00,,,0.00,Wunderground v.1.15,2013-09-02 07:10:00,
2013-09-01 21:15:00,76.7,67.8,30.08,NE,45,5.0,-999.0,74,0.00,,,0.00,Wunderground v.1.15,2013-09-02 07:15:00,
2013-09-01 21:20:00,76.7,67.8,30.08,NE,45,5.0,-999.0,74,0.00,,,0.00,Wunderground v.1.15,2013-09-02 07:20:00,
2013-09-01 21:25:00,76.7,67.8,30.08,NE,45,5.0,-999.0,74,0.00,,,0.00,Wunderground v.1.15,2013-09-02 07:25:00,
2013-09-01 21:30:00,76.7,67.8,30.08,NE,45,5.0,-999.0,74,0.00,,,0.00,Wunderground v.1.15,2013-09-02 07:30:00,
2013-09-01 21:35:00,76.7,67.8,30.08,NE,45,5.0,-999.0,74,0.00,,,0.00,Wunderground v.1.15,2013-09-02 07:35:00,
2013-09-01 21:40:00,76.7,67.8,30.08,NE,45,5.0,-999.0,74,0.00,,,0.00,Wunderground v.1.15,2013-09-02 07:40:00,
2013-09-01 21:45:00,76.5,67.2,30.08,ENE,68,4.0,-999.0,73,0.00,,,0.00,Wunderground v.1.15,2013-09-02 07:45:00,
2013-09-01 21:50:00,76.5,67.2,30.08,ENE,68,4.0,-999.0,73,0.00,,,0.00,Wunderground v.1.15,2013-09-02 07:50:00,
2013-09-01 22:00:00,76.5,67.2,30.08,ENE,68,4.0,-999.0,73,0.00,,,0.00,Wunderground v.1.15,2013-09-02 08:00:00,
2013-09-01 22:04:00,76.5,67.2,30.08,ENE,68,4.0,-999.0,73,0.00,,,0.00,Wunderground v.1.15,2013-09-02 08:04:00,
2013-09-01 22:05:00,76.5,67.2,30.08,ENE,68,4.0,-999.0,73,0.00,,,0.00,Wunderground v.1.15,2013-09-02 08:05:00,
2013-09-01 22:10:00,76.5,67.2,30.08,ENE,68,4.0,-999.0,73,0.00,,,0.00,Wunderground v.1.15,2013-09-02 08:10:00,
2013-09-01 22:15:00,76.1,67.2,30.08,NE,45,3.0,-999.0,74,0.00,,,0.00,Wunderground v.1.15,2013-09-02 08:15:00,
2013-09-01 22:20:00,76.1,67.2,30.08,NE,45,3.0,-999.0,74,0.00,,,0.00,Wunderground v.1.15,2013-09-02 08:20:00,
2013-09-01 22:25:00,76.1,67.2,30.08,NE,45,3.0,-999.0,74,0.00,,,0.00,Wunderground v.1.15,2013-09-02 08:25:00,
2013-09-01 22:30:00,76.1,67.2,30.08,NE,45,3.0,-999.0,74,0.00,,,0.00,Wunderground v.1.15,2013-09-02 08:30:00,
2013-09-01 22:35:00,76.1,67.2,30.08,NE,45,3.0,-999.0,74,0.00,,,0.00,Wunderground v.1.15,2013-09-02 08:35:00,
2013-09-01 22:40:00,76.1,67.2,30.08,NE,45,3.0,-999.0,74,0.00,,,0.00,Wunderground v.1.15,2013-09-02 08:40:00,
2013-09-01 22:45:00,75.9,66.6,30.08,ENE,68,3.0,-999.0,73,0.00,,,0.00,Wunderground v.1.15,2013-09-02 08:45:00,
2013-09-01 22:50:00,75.9,66.6,30.08,ENE,68,3.0,-999.0,73,0.00,,,0.00,Wunderground v.1.15,2013-09-02 08:50:00,
2013-09-01 22:55:00,75.9,66.6,30.08,ENE,68,3.0,-999.0,73,0.00,,,0.00,Wunderground v.1.15,2013-09-02 08:55:00,
2013-09-01 23:00:00,75.9,66.6,30.08,ENE,68,3.0,-999.0,73,0.00,,,0.00,Wunderground v.1.15,2013-09-02 09:00:00,
2013-09-01 23:05:00,75.9,66.6,30.08,ENE,68,3.0,-999.0,73,0.00,,,0.00,Wunderground v.1.15,2013-09-02 09:05:00,
2013-09-01 23:10:00,75.9,66.6,30.08,ENE,68,3.0,-999.0,73,0.00,,,0.00,Wunderground v.1.15,2013-09-02 09:10:00,
2013-09-01 23:15:00,75.9,66.6,30.07,ENE,68,3.0,-999.0,73,0.00,,,0.00,Wunderground v.1.15,2013-09-02 09:15:00,
2013-09-01 23:20:00,75.9,66.6,30.07,ENE,68,3.0,-999.0,73,0.00,,,0.00,Wunderground v.1.15,2013-09-02 09:20:00,
2013-09-01 23:25:00,75.9,66.6,30.07,ENE,68,3.0,-999.0,73,0.00,,,0.00,Wunderground v.1.15,2013-09-02 09:25:00,
2013-09-01 23:30:00,75.9,66.6,30.07,ENE,68,3.0,-999.0,73,0.00,,,0.00,Wunderground v.1.15,2013-09-02 09:30:00,
2013-09-01 23:35:00,75.9,66.6,30.07,ENE,68,3.0,-999.0,73,0.00,,,0.00,Wunderground v.1.15,2013-09-02 09:35:00,
2013-09-01 23:40:00,75.9,66.6,30.07,ENE,68,3.0,-999.0,73,0.00,,,0.00,Wunderground v.1.15,2013-09-02 09:40:00,
2013-09-01 23:45:00,75.6,66.3,30.07,ENE,68,2.0,-999.0,73,0.00,,,0.00,Wunderground v.1.15,2013-09-02 09:45:00,
2013-09-01 23:50:00,75.6,66.3,30.07,ENE,68,2.0,-999.0,73,0.00,,,0.00,Wunderground v.1.15,2013-09-02 09:50:00,
2013-09-01 23:55:00,75.6,66.3,30.07,ENE,68,2.0,-999.0,73,0.00,,,0.00,Wunderground v.1.15,2013-09-02 09:55:00,